STARLINK-1543, 46053

Orbit data source: Space-Track

STARLINK-1543, 46053 is a payload satellite owned by SpaceX/Seattle (US) in LEO that was launched on Fri, 07 Aug 2020 UTC via an FALCON 9 launch vehicle from the Air Force Eastern Test Range (AFETR). Payload-class satellites include a variety of spacecraft equipped with specific instruments for various scientific and technological missions. These include communications satellites like Starlink; space stations such as the ISS; scientific satellites like the Hubble; Earth observation satellites from companies like Planet Labs, Umbra, and HawkEye 360; GPS; miniature CubeSats for education and research; and military/defense satellites.

Loading next visibility...
Identifier
46053, 2020-055AC
Orbit
LEO
Country
Flag of USUS
Related business
Manufacturer
SpaceX/Seattle
Mission
Operational Commercial Communications
Bus & Motor
STARLINK, Unknown motor
Mass
260 kg wet, ~248 kg dry
Launch date (UTC)
2020-08-07 (6 years ago)
Launch vehicle
FALCON 9
Launch site
Air Force Eastern Test Range (AFETR)
Object type
Payload
Rocket body
Debris
Shape & HBR
Box + 1 Pan, 10.1 m
Radar Cross Section
13.562 m², Large (>1 m²)

Expand to show TLE details & history
Last TLE update: 1 day ago

TLE from 1 day ago
0 STARLINK-1543
1 46053U 20055AC  26174.88412635  .00001011  00000-0  44337-4 0  9995
2 46053  53.1615 339.9670 0001607  87.9702 272.1483 15.31702961325344
Epoch: 2026-06-23T21:13Z
TLE epoch observation values (Epoch: 2026-06-23T21:13:08.516Z)
Latitude
-0.00007°
Longitude
109.63218°
Altitude
471.591 km
Speed
7.631 km/s
True Right ascension
22h 39m 52s
True Declination
0° 00' 00"
Sunlit
Object was in daylight at epoch
Visualization orbit readout
Latitude
Unknown
Longitude
Unknown
Altitude
Unknown
Speed
Unknown
Apparent Right ascension
Unknown
Apparent Declination
Unknown
Sunlit
N/A
Visualization observer readout
Local Sidereal Time
16:42:45
Azimuth
Unknown
Elevation
Unknown
Doppler factor
Unknown
Orbital elements
Apogee altitude
472.088 km
Perigee altitude
469.887 km
Semi-major axis
6,849.125 km
Eccentricity
0.00016
Inclination
53.1615°
RAAN
339.967°
Arg. of periapsis
87.9702°
True anomaly
272.1299°
Mean anomaly
272.1483°
Eccentric anomaly
272.1391°
Mean motion
3.82905 °/min
Orbital period
94.02 mins
BSTAR
0.000044337
Loading maneuver chart data...
Computing Atmospheric mass density...

Documentation

Showing up to 5 results
|